Regional Weather Roundup
Issued by NWS

Home | Current Version | Previous Version | Graphics & Text | Print | Product List | Glossary On
Versions: 1 2 3 4 5 6 7 8 9 10 11 12 13 14 15 16 17 18 19 20 21 22 23 24 25 26 27 28 29 30 31 32 33 34 35 36 37 38 39 40 41 42 43 44 45 46 47 48 49 50
000
ASUS43 KLMK 281410
RWRKY
KENTUCKY REGIONAL WEATHER ROUNDUP
NATIONAL WEATHER SERVICE LOUISVILLE KY
1000 AM EDT FRI AUG 28 2015

NOTE "FAIR" INDICATES FEW OR NO CLOUDS BELOW 12,000 FEET
WITH NO SIGNIFICANT WEATHER AND/OR OBSTRUCTIONS TO VISIBILITY.

KYZ001>023-026-027-061>063-070>075-281500-
WESTERN AND SOUTH CENTRAL KENTUCKY

CITY           SKY/WX    TMP DP  RH WIND       PRES   REMARKS
PADUCAH        SUNNY     69  62  78 E3        30.12S
HENDERSON      SUNNY     66  59  77 E5        30.14S
OWENSBORO      SUNNY     70  59  68 E7        30.16S
HOPKINSVILLE   SUNNY     67  59  75 E7        30.14S
BOWLING GREEN  MOSUNNY   69  59  70 E7        30.16S
GLASGOW        SUNNY     66  59  79 E5        30.17R
$$

KYZ024-025-028>034-038-045-046-053-281500-
NORTH CENTRAL KENTUCKY

CITY           SKY/WX    TMP DP  RH WIND       PRES   REMARKS
LOUISVILLE/SDF MOSUNNY   70  57  63 VRB3      30.17S
LOUISVILLE/LOU SUNNY     69  57  65 CALM      30.18F
FORT KNOX      SUNNY     67  57  71 NE5       30.16S
$$

KYZ035>037-039>044-047>052-055>060-089>105-281500-
NORTHEAST KENTUCKY

CITY           SKY/WX    TMP DP  RH WIND       PRES   REMARKS
LEXINGTON      SUNNY     71  57  61 E8        30.20R
COVINGTON      SUNNY     68  58  70 E6        30.20
FRANKFORT      SUNNY     66  57  72 E5        30.19R
$$

KYZ054-064>069-076>088-106>120-281500-
SOUTHEAST KENTUCKY

CITY           SKY/WX    TMP DP  RH WIND       PRES   REMARKS
JACKSON        SUNNY     66  59  78 CALM      30.20S
LONDON         MOSUNNY   68  57  68 CALM      30.20R
SOMERSET       SUNNY     66  57  72 CALM      30.20S
MIDDLESBORO    SUNNY     67  62  84 CALM      30.21S
MONTICELLO     SUNNY     69  62  78 CALM      30.21R
$$



USA.gov is the U.S. government's official web portal to all federal, state and local government web resources and services.